weather.gov     
National Weather Service

Regional Weather Roundup
NWS Homepage
This page is being discontinued on March 12, 2014.
The same data is available at this site. Please update your bookmarks.
Thank you, and we apologize for the inconvenience.
Please send an email to SR-SRH.Webmaster@noaa.gov with any concerns.


Current Version
Previous Version:    01  02  03  04  05  06  07  08  09  10  11  12  13  14  15  16  17  18  19  20  21  22  23  24  25  26  27  28  29  30  
   31  32  33  34  35  36  37  38  39  40  41  42  43  44  45  46  47  48  49  50  51  52  53  
[Printable]
355
ASUS44 KMEG 010010
RWRMEG
MEMPHIS CWA HOURLY WEATHER ROUNDUP
NATIONAL WEATHER SERVICE MEMPHIS TN
600 PM CST SAT JAN 31 2015

...WEST TENNESSEE...

CITY           SKY/WX    TMP DP  RH WIND       PRES   REMARKS
MEMPHIS INTL   CLOUDY    46  25  43 E7        30.19F
6HR MIN TEMP:  44; 6HR MAX TEMP:  47;

NWS MEMPHIS      N/A     45 N/A N/A MISG        N/A
JACKSON        CLOUDY    44  22  41 E6        30.22F
6HR MIN TEMP:  44; 6HR MAX TEMP:  46;

LEXINGTON      PTCLDY    43  21  42 CALM      30.22F
SAVANNAH       CLEAR     45  23  42 CALM      30.23F
DYERSBURG      CLOUDY    45  19  36 E6        30.23F
6HR MIN TEMP:  43; 6HR MAX TEMP:  46;

UNION CITY     CLEAR     39  25  56 CALM      30.22F
PARIS          CLEAR     39  23  52 CALM      30.24S


...EASTERN ARKANSAS...

CITY           SKY/WX    TMP DP  RH WIND       PRES   REMARKS
JONESBORO      CLOUDY    42  30  62 E9        30.19S
6HR MIN TEMP:  41; 6HR MAX TEMP:  44;

WEST MEMPHIS   CLOUDY    45  27  49 E8        30.17F
6HR MIN TEMP:  43; 6HR MAX TEMP:  46;

BATESVILLE     CLOUDY    43  27  52 E7        30.15R
6HR MIN TEMP:  43; 6HR MAX TEMP:  46;

NEWPORT        CLOUDY    44  31  60 SE12      30.17F
6HR MIN TEMP:  43; 6HR MAX TEMP:  46;

WALNUT RIDGE   CLOUDY    43  28  56 SE12      30.15F
6HR MIN TEMP:  43; 6HR MAX TEMP:  45;

BLYTHEVILLE    CLOUDY    44  28  53 SE8       30.20F
6HR MIN TEMP:  44; 6HR MAX TEMP:  48;

SEARCY         CLOUDY    44  28  53 E7        30.18S
6HR MIN TEMP:  44; 6HR MAX TEMP:  49;

STUTTGART      CLOUDY    45  28  53 E8        30.17S
6HR MIN TEMP:  43; 6HR MAX TEMP:  46;

PINE BLUFF     CLOUDY    45  34  65 E5        30.16S
6HR MIN TEMP:  43; 6HR MAX TEMP:  49;

MONTICELLO     CLOUDY    50  32  50 E3        30.15S
6HR MIN TEMP:  49; 6HR MAX TEMP:  56;



...NORTH MISSISSIPPI...

CITY           SKY/WX    TMP DP  RH WIND       PRES   REMARKS
TUPELO         CLOUDY    51  23  33 E5        30.21F
6HR MIN TEMP:  50; 6HR MAX TEMP:  54;

OXFORD         CLOUDY    46  25  42 E5        30.21R
OLIVE BRANCH   CLOUDY    43  28  56 E5        30.19F
TUNICA         CLOUDY    45  32  61 NE7       30.19F
CLARKSDALE     CLOUDY    45  36  70 NE5       30.18S
GRENADA        MOCLDY    50  30  46 E7        30.18S
GREENWOOD      MOCLDY    57  23  26 SE7       30.16S
6HR MIN TEMP:  53; 6HR MAX TEMP:  64;

COLUMBUS       MOCLDY    47  23  39 SE3       30.22S
6HR MIN TEMP:  47; 6HR MAX TEMP:  61;

STARKVILLE     FAIR      46  30  53 SE3       30.21F
GOLDEN TRIANGL CLEAR     54  23  30 S5        30.21S


...SOUTHEAST MISSOURI...

CITY           SKY/WX    TMP DP  RH WIND       PRES   REMARKS
WEST PLAINS    CLOUDY    42  18  37 SE8G17    30.11F
6HR MIN TEMP:  41; 6HR MAX TEMP:  44;

POPLAR BLUFF   CLOUDY    40  29  64 E5        30.19F
6HR MIN TEMP:  39; 6HR MAX TEMP:  42;

CAPE GIRARDEAU CLOUDY    41  28  60 E7        30.20F
6HR MIN TEMP:  39; 6HR MAX TEMP:  44;



...NORTHWEST ALABAMA...

CITY           SKY/WX    TMP DP  RH WIND       PRES   REMARKS
MUSCLE SHOALS  CLOUDY    47  22  37 E3        30.26S
6HR MIN TEMP:  47; 6HR MAX TEMP:  51;



...MIDDLE TENNESSEE...

CITY           SKY/WX    TMP DP  RH WIND       PRES   REMARKS
NASHVILLE      CLOUDY    44  16  32 CALM      30.28R
6HR MIN TEMP:  42; 6HR MAX TEMP:  47;

CLARKSVILLE    CLOUDY    43  22  43 SE5       30.26S
6HR MIN TEMP:  43; 6HR MAX TEMP:  48;

COLUMBIA       CLEAR     43  19  39 E5        30.25S


...WESTERN KENTUCKY...

CITY           SKY/WX    TMP DP  RH WIND       PRES   REMARKS
PADUCAH        CLOUDY    41  25  53 E5        30.23F
6HR MIN TEMP:  40; 6HR MAX TEMP:  45;

FORT CAMPBELL  CLOUDY    42  26  53 NE5       30.26S
6HR MIN TEMP:  42; 6HR MAX TEMP:  47;



...CENTRAL ARKANSAS...

CITY           SKY/WX    TMP DP  RH WIND       PRES   REMARKS
LITTLE ROCK    CLOUDY    45  28  51 E8        30.15F
6HR MIN TEMP:  45; 6HR MAX TEMP:  48;



SKY/WX REPORTED AS FAIR MEANS FEW OR NO CLOUDS BELOW
12 THOUSAND FEET.





U.S. Dept. of Commerce
NOAA National Weather Service
1325 East West Highway
Silver Spring, MD 20910
E-mail: w-nws.webmaster@noaa.gov
Page last modified: May 16, 2007
NATIONAL WEATHER SERVICE: for Safety, for Work, for Fun - FOR LIFE